Weather History for Jefferson, GA

Change the Weather History Date:

Thursday, October 3, 2013

  Actual Average (KGVL) Record (KGVL)
Temperature  
Mean Temperature 71 °F 66 °F  
Max Temperature 82 °F 75 °F 92 °F (1954)
Min Temperature 60 °F 56 °F 33 °F (1974)
Degree Days  
Heating Degree Days 0 2  
Month to date heating degree days 6  
Since 1 July heating degree days 19  
Cooling Degree Days 6 3  
Month to date cooling degree days 9  
Year to date cooling degree days 1550  
Growing Degree Days 21 (Base 50)    
Moisture  
Dew Point 56 °F    
Average Humidity 68    
Maximum Humidity 100    
Minimum Humidity 25    
Precipitation  
Precipitation 0.00 in 0.17 in 0.83 in (1988)
Month to date precipitation 0.53  
Snow  
Snow 0.00 in - - ()
Month to date snowfall  
Since 1 July snowfall  
Since 1 September snowfall  
Snow Depth -    
Sea Level Pressure  
Sea Level Pressure 30.13 in    
Wind  
Wind Speed 1 mph (SSW)    
Max Wind Speed 7 mph    
Max Gust Speed -    
Visibility 9 miles    
Events      
T = Trace of Precipitation, MM = Missing Value Source: NWS Daily Summary

Daily Weather History Graph

Daily Weather History Graph

Search for Another Location

Airport:

Trip Planner

Search our weather history database for the weather conditions in past years. The results will help you decide how hot, cold, wet, or windy it might be!

Date:

Astronomy

Oct. 03, 2013 Rise Set
Actual Time 7:30 AM EDT 7:15 PM EDT
Civil Twilight 7:05 AM EDT 7:40 PM EDT
Nautical Twilight 6:36 AM EDT 8:09 PM EDT
Astronomical Twilight 6:07 AM EDT 8:38 PM EDT
Moon 6:05 AM EDT (10/3) 6:22 PM EDT (10/3)
Length of Visible Light 12h 34m
Length of Day
11h 44m
Waning Crescent, 2% of the Moon is Illuminated
Oct 3
Waning Crescent
Oct 4
New
Oct 11
First Quarter
Oct 18
Full
Oct 26
Last Quarter

Hourly Weather History & Observations

Time (EDT) Temp. Dew Point Humidity Pressure Visibility Wind Dir Wind Speed Gust Speed Precip Events Conditions
12:15 AM 64.4 °F 64.4 °F 100% 30.15 in - Calm Calm - N/A   Unknown
12:35 AM 64.4 °F 64.4 °F 100% 30.15 in - Calm Calm - N/A   Unknown
12:55 AM 64.4 °F 64.4 °F 100% 30.15 in - Calm Calm - N/A   Unknown
1:15 AM 64.4 °F 64.4 °F 100% 30.14 in - Calm Calm - N/A   Unknown
1:35 AM 64.4 °F 64.4 °F 100% 30.13 in - Calm Calm - N/A   Unknown
1:55 AM 64.4 °F 64.4 °F 100% 30.14 in - Calm Calm - N/A   Unknown
2:15 AM 64.4 °F 62.6 °F 94% 30.14 in - Calm Calm - N/A   Unknown
2:35 AM 64.4 °F 62.6 °F 94% 30.13 in - Calm Calm - N/A   Unknown
2:55 AM 64.4 °F 62.6 °F 94% 30.13 in - Calm Calm - N/A   Unknown
3:15 AM 62.6 °F 62.6 °F 100% 30.13 in - Calm Calm - N/A   Unknown
3:35 AM 62.6 °F 62.6 °F 100% 30.12 in - Calm Calm - N/A   Unknown
3:55 AM 62.6 °F 62.6 °F 100% 30.12 in - Calm Calm - N/A   Unknown
4:15 AM 62.6 °F 62.6 °F 100% 30.12 in - Calm Calm - N/A   Unknown
4:35 AM 62.6 °F 62.6 °F 100% 30.12 in - Calm Calm - N/A   Unknown
4:55 AM 62.6 °F 60.8 °F 94% 30.12 in - Calm Calm - N/A   Unknown
5:15 AM 62.6 °F 60.8 °F 94% 30.12 in 4.0 mi Calm Calm - N/A   Clear
5:35 AM 60.8 °F 60.8 °F 100% 30.12 in - Calm Calm - N/A   Unknown
5:55 AM 60.8 °F 60.8 °F 100% 30.12 in 5.0 mi Calm Calm - N/A   Clear
6:15 AM 60.8 °F 60.8 °F 100% 30.13 in 7.0 mi Calm Calm - N/A   Clear
6:35 AM 60.8 °F 60.8 °F 100% 30.13 in - Calm Calm - N/A   Unknown
6:55 AM 60.8 °F 60.8 °F 100% 30.13 in 1.8 mi Calm Calm - N/A   Mist
7:15 AM 60.8 °F 60.8 °F 100% 30.14 in 5.0 mi Calm Calm - N/A   Clear
7:35 AM 60.8 °F 60.8 °F 100% 30.14 in 7.0 mi Calm Calm - N/A   Clear
7:55 AM 60.8 °F 60.8 °F 100% 30.14 in 7.0 mi Calm Calm - N/A   Clear
8:15 AM 60.8 °F 60.8 °F 100% 30.15 in 5.0 mi Calm Calm - N/A   Clear
8:35 AM 62.6 °F 60.8 °F 94% 30.15 in 10.0 mi Calm Calm - N/A   Clear
8:55 AM 64.4 °F 62.6 °F 94% 30.16 in - Calm Calm - N/A   Unknown
9:15 AM 66.2 °F 64.4 °F 94% 30.16 in 10.0 mi Calm Calm - N/A   Clear
9:35 AM 68.0 °F 64.4 °F 88% 30.16 in 10.0 mi Calm Calm - N/A   Clear
9:55 AM 69.8 °F 59.0 °F 68% 30.16 in - Calm Calm - N/A   Clear
10:15 AM 71.6 °F 55.4 °F 57% 30.17 in - Calm Calm - N/A   Clear
10:35 AM 73.4 °F 55.4 °F 53% 30.17 in - Calm Calm - N/A   Clear
10:55 AM 77.0 °F 53.6 °F 44% 30.17 in - Calm Calm - N/A   Clear
11:15 AM 77.0 °F 55.4 °F 47% 30.18 in 10.0 mi Calm Calm - N/A   Clear
11:35 AM 77.0 °F 51.8 °F 41% 30.17 in 10.0 mi Calm Calm - N/A   Clear
11:55 AM 78.8 °F 51.8 °F 39% 30.17 in 10.0 mi Calm Calm - N/A   Clear
12:15 PM 80.6 °F 50.0 °F 34% 30.17 in 10.0 mi SW 4.6 mph - N/A   Clear
12:35 PM 78.8 °F 50.0 °F 36% 30.16 in 10.0 mi Calm Calm - N/A   Scattered Clouds
12:55 PM 78.8 °F 44.6 °F 30% 30.16 in 10.0 mi SSW 5.8 mph - N/A   Scattered Clouds
1:15 PM 80.6 °F 48.2 °F 32% 30.15 in 10.0 mi Calm Calm - N/A   Scattered Clouds
1:35 PM 80.6 °F 46.4 °F 30% 30.15 in 10.0 mi South 4.6 mph - N/A   Scattered Clouds
1:55 PM 80.6 °F 44.6 °F 28% 30.14 in 10.0 mi SW 5.8 mph - N/A   Scattered Clouds
2:15 PM 80.6 °F 46.4 °F 30% 30.13 in 10.0 mi Calm Calm - N/A   Scattered Clouds
2:35 PM 82.4 °F 44.6 °F 26% 30.13 in 10.0 mi SSW 5.8 mph - N/A   Scattered Clouds
2:55 PM 82.4 °F 46.4 °F 28% 30.12 in 10.0 mi SSW 6.9 mph - N/A   Scattered Clouds
3:15 PM 80.6 °F 42.8 °F 26% 30.11 in 10.0 mi Calm Calm - N/A   Scattered Clouds
3:35 PM 82.4 °F 42.8 °F 25% 30.10 in 10.0 mi SSW 5.8 mph - N/A   Scattered Clouds
3:55 PM 82.4 °F 42.8 °F 25% 30.10 in 10.0 mi Calm Calm - N/A   Scattered Clouds
4:15 PM 82.4 °F 46.4 °F 28% 30.09 in 10.0 mi SE 5.8 mph - N/A   Mostly Cloudy
4:35 PM 82.4 °F 44.6 °F 26% 30.09 in 10.0 mi South 4.6 mph - N/A   Overcast
4:55 PM 80.6 °F 46.4 °F 30% 30.10 in 10.0 mi South 4.6 mph - N/A   Scattered Clouds
5:15 PM 80.6 °F 44.6 °F 28% 30.09 in 10.0 mi Calm Calm - N/A   Clear
5:35 PM 80.6 °F 46.4 °F 30% 30.09 in 10.0 mi SSW 3.5 mph - N/A   Clear
5:55 PM 80.6 °F 46.4 °F 30% 30.09 in - South 3.5 mph - N/A   Clear
6:15 PM 80.6 °F 46.4 °F 30% 30.10 in - SSW 4.6 mph - N/A   Clear
6:35 PM 80.6 °F 50.0 °F 34% 30.09 in - Calm Calm - N/A   Clear
6:55 PM 78.8 °F 51.8 °F 39% 30.10 in - Calm Calm - N/A   Clear
7:15 PM 71.6 °F 57.2 °F 60% 30.09 in - Calm Calm - N/A   Clear
7:35 PM 71.6 °F 57.2 °F 60% 30.10 in - Calm Calm - N/A   Clear
7:55 PM 69.8 °F 55.4 °F 60% 30.11 in - Calm Calm - N/A   Clear
8:15 PM 69.8 °F 55.4 °F 60% 30.11 in - Calm Calm - N/A   Clear
8:35 PM 69.8 °F 55.4 °F 60% 30.11 in - Calm Calm - N/A   Clear
8:55 PM 69.8 °F 57.2 °F 64% 30.11 in - Calm Calm - N/A   Clear
9:15 PM 68.0 °F 57.2 °F 68% 30.12 in - Calm Calm - N/A   Clear
9:35 PM 68.0 °F 59.0 °F 73% 30.12 in - Calm Calm - N/A   Clear
9:55 PM 68.0 °F 59.0 °F 73% 30.13 in - Calm Calm - N/A   Clear
10:15 PM 68.0 °F 60.8 °F 78% 30.13 in - Calm Calm - N/A   Clear
10:35 PM 68.0 °F 60.8 °F 78% 30.13 in - Calm Calm - N/A   Clear
10:55 PM 66.2 °F 62.6 °F 88% 30.14 in - Calm Calm - N/A   Unknown
11:15 PM 66.2 °F 60.8 °F 83% 30.14 in - Calm Calm - N/A   Clear
11:35 PM 64.4 °F 62.6 °F 94% 30.14 in - Calm Calm - N/A   Unknown